Flag for Greece Weather past 2 weeks in Kallithea, Greece

Now
59 °F

Passing clouds.


Feels Like: 59 °F
Forecast: 52 / 67 °F
Wind: No wind

Location: Elefsis Airport

Current Time: Apr 25, 2015 at 10:10:17 PM

Latest Report: Apr 25, 2015 at 9:20 PM


Visibility: N/A

Pressure: 30.04 "Hg

Humidity: 72%

Dew point: 50 °F

Location of KallitheaLocation

Historic Weather in Kallithea — Graph

°F

Kallithea temperature yesterday

Maximum temperature yesterday: 68 °F (at 1:50 PM)
Minimum temperature yesterday: 45 °F (at 6:50 AM)
Average temperature yesterday: 58 °F

Past Weeks' High & Low Weather Summary

 TemperatureHumidityPressure
High77 °F (Apr 17, 1:20 PM)88% (Apr 16, 11:20 PM)30.33 "Hg (Apr 16, 11:20 PM)
Low41 °F (Apr 11, 2:50 AM)20% (Apr 13, 4:50 PM)29.83 "Hg (Apr 19, 4:50 AM)
Average59 °F57%30.10 "Hg
* Reported Apr 10 8:20 PM — Apr 25 8:50 PM, Kallithea, Weather by CustomWeather, © 2015

Note: Actual official high and low records may vary slightly from our data, if they occured in-between our weather recording intervals... More about our weather records

Advertising

Kallithea weather history for previous 24 hours

 ConditionsComfort  
Time TempWeatherWind HumidityBarometerVisibility
8:50 PM
Sat, Apr 25
59 °FPassing clouds.No wind72%30.04 "HgN/A
8:20 PM61 °FPassing clouds.No wind68%30.04 "HgN/A
7:50 PM63 °FScattered clouds.6 mph64%30.01 "HgN/A
7:20 PM64 °FScattered clouds.5 mph60%30.01 "HgN/A
6:50 PM64 °FScattered clouds.7 mph60%30.01 "HgN/A
6:20 PM64 °FScattered clouds.8 mph52%30.01 "HgN/A
5:50 PM66 °FScattered clouds.9 mph46%30.01 "HgN/A
5:20 PM68 °FScattered clouds.10 mph38%30.01 "HgN/A
4:50 PM70 °FScattered clouds.12 mph40%30.01 "HgN/A
4:20 PM70 °FScattered clouds.9 mph43%30.01 "HgN/A
3:50 PM70 °FPartly sunny.9 mph43%30.04 "HgN/A
3:20 PM68 °FPartly sunny.10 mph49%30.04 "HgN/A
2:50 PM68 °FPartly sunny.12 mph53%30.04 "HgN/A
2:20 PM68 °FPartly sunny.12 mph56%30.07 "HgN/A
1:50 PM68 °FPartly sunny.13 mph56%30.07 "HgN/A
1:20 PM70 °FScattered clouds.10 mph50%30.07 "HgN/A
12:50 PM70 °FScattered clouds.8 mph40%30.07 "HgN/A
12:20 PM68 °FPartly sunny.9 mph40%30.09 "HgN/A
11:50 AM66 °FScattered clouds.9 mph60%30.09 "HgN/A
11:20 AM70 °FScattered clouds.No wind40%30.09 "HgN/A
10:50 AM68 °FScattered clouds.No wind46%30.07 "HgN/A
10:20 AM66 °FScattered clouds.No wind52%30.07 "HgN/A
9:50 AM64 °FPartly sunny.No wind60%30.09 "HgN/A
9:20 AM61 °FPartly sunny.No wind68%30.09 "HgN/A
8:50 AM59 °FPartly sunny.No wind72%30.09 "HgN/A
8:20 AM59 °FPartly sunny.No wind77%30.07 "HgN/A
7:50 AM57 °FPartly sunny.No wind77%30.07 "HgN/A
7:20 AM55 °FPassing clouds.No wind82%30.07 "HgN/A
6:50 AM55 °FPassing clouds.No wind82%30.07 "HgN/A
6:20 AM55 °FPassing clouds.No wind82%30.07 "HgN/A
5:50 AM55 °FPassing clouds.5 mph82%30.07 "HgN/A
5:20 AM55 °FPassing clouds.No wind82%30.07 "HgN/A
4:50 AM54 °FPassing clouds.No wind82%30.07 "HgN/A
4:20 AM55 °FPassing clouds.3 mph77%30.07 "HgN/A
3:50 AM54 °FPassing clouds.No wind82%30.07 "HgN/A
3:20 AM55 °FPassing clouds.No wind77%30.07 "HgN/A
2:50 AM55 °FPassing clouds.3 mph77%30.07 "HgN/A
2:20 AM55 °FPassing clouds.7 mph77%30.09 "HgN/A
1:50 AM55 °FPassing clouds.3 mph77%30.09 "HgN/A
1:20 AM55 °FPassing clouds.5 mph77%30.09 "HgN/A
12:50 AM57 °FPassing clouds.5 mph77%30.09 "HgN/A
11:50 PM
Fri, Apr 24
57 °FPassing clouds.7 mph77%30.09 "HgN/A
11:20 PM55 °FPassing clouds.3 mph82%30.12 "HgN/A
10:50 PM55 °FPassing clouds.6 mph82%30.12 "HgN/A
Weather by CustomWeather, © 2015

See weather overviewHow to use our weather pages